Regional Weather Roundup
Issued by NWS

Home | Current Version | Previous Version | Text Only | Print | Product List | Glossary On
Versions: 1 2 3 4 5 6 7 8 9 10 11 12 13 14 15 16 17 18 19 20 21 22 23 24 25 26 27 28 29 30 31 32 33 34 35 36 37 38 39 40 41 42 43 44 45 46 47 48 49 50
000
ASUS43 KDMX 251007
RWRIA

WEATHER ROUNDUP FOR IOWA
NATIONAL WEATHER SERVICE DES MOINES IA
500 AM CDT MON MAY 25 2015

NOTE: "FAIR" INDICATES FEW OR NO CLOUDS BELOW 12,000 FEET WITH NO
SIGNIFICANT WEATHER AND/OR OBSTRUCTIONS TO VISIBILITY.

* - THESE STATIONS ARE NOT NWS STATIONS...THUS NOT UNDER NWS
QUALITY CONTROL.  THEY ALSO DO NOT REPORT WEATHER SUCH
AS PRECIPITATION OR FOG.

IAZ001>003-012>014-020>022-031>034-043>046-251100-
   NORTHWEST IOWA

CITY           SKY/WX    TMP DP  RH WIND       PRES   REMARKS
CARROLL *      CLOUDY    63  63 100 SW10      29.74S
CHEROKEE *     CLOUDY    59  59 100 SW6       29.73F FOG
DENISON *      MOCLDY    63  63 100 SW5       29.73S
LE MARS *      CLOUDY    61  61 100 CALM      29.73F
ORANGE CITY *  FOG       57  57 100 W6        29.72F VSB 3/4
SHELDON *      FOG       59  59 100 W7        29.71F VSB 1/2
SIOUX CITY     CLOUDY    59  56  89 NW5       29.73F FOG
SPENCER        CLOUDY    61  60  97 W10       29.72S FOG
STORM LAKE *   CLOUDY    61  61 100 SW8       29.74F FOG
$$

IAZ055>058-069>071-079>083-090>094-251100-
   SOUTHWEST IOWA

CITY           SKY/WX    TMP DP  RH WIND       PRES   REMARKS
ATLANTIC *     CLOUDY    61  61 100 S7        29.77S
AUDUBON *      LGT RAIN  63  59  88 SW7       29.77S
CLARINDA *     CLOUDY    63  63 100 S7        29.81R
COUNCIL BLFS * CLOUDY    63  63 100 S6        29.77S
CRESTON *      LGT RAIN  61  61 100 SW9       29.79S
HARLAN  *      PTCLDY    61  61 100 S7        29.79S
LAMONI         LGT RAIN  63  60  90 SW9       29.81R
RED OAK *      CLOUDY    61  61 100 S7        29.78S
SHENANDOAH *   CLOUDY    63  63 100 SW7       29.79R
$$

IAZ047>049-059>061-072>074-084-251100-
   CENTRAL IOWA

CITY           SKY/WX    TMP DP  RH WIND       PRES   REMARKS
AMES           LGT RAIN  63  61  93 SW12      29.74R FOG
ANKENY *       CLOUDY    63  63 100 SW7       29.76R
CHARITON *     LGT RAIN  63  61  94 SW9       29.80R
DES MOINES     LGT RAIN  64  61  90 SW10      29.76R
GRINNELL*      CLOUDY    63  61  94 SW10      29.76S
KNOXVILLE *    CLOUDY    63  61  94 SW9G18    29.77R
MARSHALLTOWN   LGT RAIN  62  62 100 S7        29.74S FOG
PELLA *        CLOUDY    63  63 100 SW10      29.78R
PERRY *        DRIZZLE   63  61  94 SW10      29.75R
$$

IAZ004>006-015-016-023>025-035-036-251100-
   NORTH CENTRAL IOWA

CITY           SKY/WX    TMP DP  RH WIND       PRES   REMARKS
ALGONA *       CLOUDY    61  59  94 SW8       29.72R FOG
CLARION *      CLOUDY    61  61 100 S6        29.72S FOG
ESTHERVILLE    CLOUDY    60  59  96 W14       29.70S
FORT DODGE *   CLOUDY    61  57  88 SW6       29.74R
MASON CITY     CLOUDY    62  61  96 SW7       29.72F FOG
FOREST CITY *  CLOUDY    59  59 100 SW7       29.71S FOG
IOWA FALLS *   DRIZZLE   63  63 100 S7        29.74S
$$

IAZ007>011-017>019-026>030-037>042-050>054-066-251100-
   NORTHEAST IOWA

CITY           SKY/WX    TMP DP  RH WIND       PRES   REMARKS
CEDAR RAPIDS   MOCLDY    63  63 100 SW9       29.74S
CHARLES CITY * FOG       63  63 100 SW9       29.73S VSB 1
CLINTON *      CLOUDY    66  63  88 W22G33    29.75R
DECORAH *      CLOUDY    63  63 100 SW5       29.71F
DUBUQUE        LGT RAIN  65  64  97 SW9       29.73S FOG
MONTICELLO *   LGT RAIN  64  64 100 SW6       29.73S
OELWEIN *      MOCLDY    63  63 100 SW7       29.74S FOG
WATERLOO       CLOUDY    63  62  97 SW9       29.73S
$$

IAZ064-065-067-068-078-251100-
   EAST CENTRAL IOWA

CITY           SKY/WX    TMP DP  RH WIND       PRES   REMARKS
DAVENPORT      CLOUDY    65  63  93 W13       29.77R
IOWA CITY      MOCLDY    64  61  90 SW6       29.77R
MT. PLEASANT * CLOUDY    63  63 100 SW7       29.80R
MUSCATINE *    CLOUDY    64  63  94 SW7       29.78R
QUAD CITIES    CLOUDY    66  63  90 W8        29.75S
$$

IAZ062-063-075>077-085>089-095>099-251100-
   SOUTHEAST IOWA

CITY           SKY/WX    TMP DP  RH WIND       PRES   REMARKS
BURLINGTON     CLOUDY    65  64  97 SW8       29.80R
FAIRFIELD *    CLOUDY    63  61  94 SW8       29.80R
FORT MADISON * CLOUDY    64  63  94 SW7       29.82R
KEOKUK *       MOCLDY    64  64 100 SW8       29.80S
OSKALOOSA *    CLOUDY    63  61  94 SW13      29.79R
CENTERVILLE *  LGT RAIN  61  61 100 SW10      29.83R
OTTUMWA        CLOUDY    63  61  93 SW9       29.78S
WASHINGTON *   CLOUDY    63  61  94 SW9       29.80R
$$

ABBREVIATIONS USED IN REMARKS
   TC - TEMPERATURES IN CELSIUS
  WCI - WIND CHILL INDEX
   HX - HEAT INDEX
  VSB - VISIBILITY
$$




USA.gov is the U.S. government's official web portal to all federal, state and local government web resources and services.